Location: Sungai Anya
(2.6167°N, 114.0500°E)
Time: 19:24:07
(UTC+00:00)

deb Ariane - Pass Details

Date: 19 October 2021
Orbit: 463 x 34759 km, 7.4° (Epoch: 07 December)

Event Time Altitude Azimuth Distance (km) Brightness Sun altitude
Rises 11:15:49 0° 273° (W) 8,128 10.8 -17.0°
Reaches altitude 10° 11:24:03 10° 277° (W) 4,502 9.0 -19.0°
Maximum altitude 11:32:15 49° 352° (N) 907 4.3 -21.0°
Enters shadow 11:33:01 42° 30° (NNE) 907 4.1 -21.2°
